STARLINK-1792

operational
NORAD ID: 46693 Int'l Des: 2020-073 Owner: SPXS Country: US Constellation: starlink
LEOCIRCULAR

STARLINK-1792について

説明を読み込み中...

リアルタイム位置

3D地球を読み込み中...

次回通過

高度履歴

Altitude vs Time

uPlot chart will show altitude changes over time

軌道要素

1 46693U 20073Z 25250.42627172 .12814095 12391-4 88728-3 0 9991
2 46693 52.9957 248.2421 0002197 292.7320 67.3494 16.40437363270845
Epoch: Sep 7, 2025 • Age: 218 hours

現在のステータス

Position data unavailable
打ち上げ日 Oct 18, 2020
運用期間 4.9 years
落下予定日 Sep 7, 2025
タイプ internet

技術仕様

分類 Payload
質量 260.00 kg
乾燥質量 248.00 kg
総質量 260.00 kg
長さ 0.20 m
直径 2.80 m
スパン 9.00 m
形状 Box + pan
製造者 SPXS
バスタイプ Starlink
フェーズステータス Reentered
所有者/国 SPXS/US

大規模コンステレーション

Loading constellations...